Juan Santamaria International Airport
MROC : now visible

Airfield :











YOU CAN JOIN US ON...

 
LOGIN :

Register | Disclaimer

   EN    FR    IT 

 









Legend :    VFR   Marginal VFR   IFR   Intensive IFR   Very Intensive IFR
Visi :
Ceiling :
>= 8 km
>= 3000ft
5 to 8 km
1000 to 3000 ft
1500m to 5 km
500 to 1000 ft
800 to 1500m
200 to 500 ft
< 800m
< 200 ft
Symbols :   Thunderstorms  Fog  Heavy snow  Heavy precipitations  Wind > 20 kt







- Airport Elevation : 3021 ft
- IATA code : SJO


MROC - Juan Santamaria International

CURRENT METAR :
  • 221000Z 30003KT 1500 BR SCT001 BKN005 21/21 A2998 NOSIG

EXPIRED METARs :
  • 220938Z 25004KT 0300 R07/0900U FG SCT001 OVC005 21/21 A2998 NOSIG
  • 220900Z 24003KT 5000 2000SW BR SCT002 BKN020 21/21 A2996 TEMPO 0800 FG
  • 220800Z 25004KT 9999 FEW015 SCT030 22/21 A2998 NOSIG

TAF MROC
Valid from the 22 at 06:00 until the 23 at 06:00 UTC


220500Z 2206/2306 08004KT 9999 FEW040 SCT100 TX30/2218Z TN20/2211Z
TEMPO 2206/2210 VRB02KT BCFG
BECMG 2216/2218 25005KT
TEMPO 2220/2224 SHRA SCT015TCU
BECMG 2302/2304 10005KT
MHTG FIR / North America



MET'MAP, your aeronautical weather chart ! - Copyright ORBIFLY December 2007 - Disclaimer

ORBIFLY MET'MAP TEAM :

Programming & Development : Alexandra Zaïnal
Concept & Development : Baudouin d'Aumeries
Co-Development & Prog : Marc-Olivier Méhu
Technical & hardware support : Manuel Goepfert

Contact : metmap@orbifly.com




SOURCES & CREDITS :

   NOAA       Earth
Advisory